Torna al catalogo

STARLINK-5666

AttivoComunicazioniVLEO
NORAD 55349·PAYLOAD·🇺🇸 United States

Lanciato Jan 26, 2023 da Cape Canaveral Space Force Station

Loading…

Prossimi Passaggi (prossime 24 ore)

TLE

AggiornatoSource: CelesTrak SupGP

Epoca: Sep 14, 2026, 22:10 UTC

1 55349C 23013U   26257.92409722 -.00028136  00000+0 -10191-2 0  2574
2 55349  43.0000 314.5804 0001562 262.8533 179.9075 15.27591715    15

Traccia STARLINK-5666 in tempo reale con AllMySat

Download on the App Store